Location: Boston
(42.3580°N, 71.0600°W)
Time: 10:05:28
(UTC-05:00)

OTV 5 (USA 277) - Pass Details

Date: 13 October 2017
Orbit: 404 x 417 km, 43.0° (Epoch: 07 September)

Event Time Altitude Azimuth Distance (km) Brightness Sun altitude
Rises 18:47:38 0° 247° (WSW) 2,348 ? -8.6°
Reaches altitude 10° 18:49:45 10° 245° (WSW) 1,487 ? -9.0°
Maximum altitude 18:53:04 64° 164° (SSE) 464 ? -9.6°
Enters shadow 18:55:43 15° 83° (E) 1,214 ? -10.1°
